STARLINK-11224, 60304

Orbit data source: Space-Track

STARLINK-11224, 60304 is a payload satellite owned by SpaceX/Seattle (US) in LEO that was launched on Sun, 28 Jul 2024 UTC via an FALCON 9 launch vehicle from the Air Force Western Test Range (AFWTR). Payload-class satellites include a variety of spacecraft equipped with specific instruments for various scientific and technological missions. These include communications satellites like Starlink; space stations such as the ISS; scientific satellites like the Hubble; Earth observation satellites from companies like Planet Labs, Umbra, and HawkEye 360; GPS; miniature CubeSats for education and research; and military/defense satellites.

Not visible in the next 10 days
Identifier
60304, 2024-133D
Orbit
LEO
Country
Flag of USUS
Related business
Manufacturer
SpaceX/Seattle
Mission
Operational Commercial Communications
Bus & Motor
STARLINK V2MD, Unknown motor
Mass
960 kg wet, ~910 kg dry
Launch date (UTC)
2024-07-28 (2 years ago)
Launch vehicle
FALCON 9
Launch site
Air Force Western Test Range (AFWTR)
Object type
Payload
Rocket body
Debris
Shape & HBR
Box + 2 Pan, 18.1 m
Radar Cross Section
36.964 m², Large (>1 m²)

Expand to show TLE details & history
Last TLE update: 22 hours ago

TLE from 22 hours ago
0 STARLINK-11224
1 60304U 24133D   26170.94379955 -.00000076  00000-0  42271-5 0  9998
2 60304  53.1590   2.1928 0000860  79.4225 280.6890 15.69718881109875
Epoch: 2026-06-19T22:39Z
TLE epoch observation values (Epoch: 2026-06-19T22:39:04.281Z)
Latitude
0.00002°
Longitude
114.25946°
Altitude
360.509 km
Speed
7.694 km/s
True Right ascension
00h 08m 46s
True Declination
0° 00' 00"
Sunlit
Object was in daylight at epoch
Visualization orbit readout
Latitude
Unknown
Longitude
Unknown
Altitude
Unknown
Speed
Unknown
Apparent Right ascension
Unknown
Apparent Declination
Unknown
Sunlit
N/A
Visualization observer readout
Local Sidereal Time
07:15:48
Azimuth
Unknown
Elevation
Unknown
Doppler factor
Unknown
Orbital elements
Apogee altitude
360.542 km
Perigee altitude
359.383 km
Semi-major axis
6,738.099 km
Eccentricity
0.00009
Inclination
53.159°
RAAN
2.1928°
Arg. of periapsis
79.4225°
True anomaly
280.67932°
Mean anomaly
280.689°
Eccentric anomaly
280.68416°
Mean motion
3.92407 °/min
Orbital period
91.74 mins
BSTAR
0.0000042271
Loading maneuver chart data...
Computing Atmospheric mass density...
Loading historical data...
Loading historical data...
Loading historical data...
Loading historical data...
Loading historical data...
Loading historical data...
Loading historical data...

Documentation

Showing up to 5 results
|